TimeEST,TemperatureF,Dew PointF,Humidity,Sea Level PressureIn,VisibilityMPH,Wind Direction,Wind SpeedMPH,Gust SpeedMPH,PrecipitationIn,Events,Conditions,WindDirDegrees,DateUTC
12:54 AM,24.1,10.0,55,30.16,6.0,NE,5.8,-,0.00,Snow,Light Snow,50,2013-01-24 05:54:00
1:10 AM,23.0,12.2,63,30.14,2.5,ENE,5.8,-,0.00,Snow,Light Snow,60,2013-01-24 06:10:00
1:45 AM,21.2,14.0,74,30.13,1.5,ENE,5.8,-,0.00,Snow,Light Snow,60,2013-01-24 06:45:00
1:54 AM,21.9,15.1,75,30.14,1.5,ENE,5.8,-,0.00,Snow,Light Snow,70,2013-01-24 06:54:00
2:18 AM,21.2,15.8,80,30.12,1.2,ENE,6.9,-,0.00,Snow,Light Snow,60,2013-01-24 07:18:00
2:49 AM,21.2,15.8,80,30.10,1.2,NE,6.9,-,0.01,Snow,Light Snow,50,2013-01-24 07:49:00
2:54 AM,21.9,16.0,78,30.11,1.5,NE,6.9,-,0.01,Snow,Light Snow,40,2013-01-24 07:54:00
3:43 AM,21.2,17.6,86,30.08,1.0,NNE,5.8,-,0.01,Snow,Light Snow,30,2013-01-24 08:43:00
3:54 AM,21.9,16.0,78,30.09,1.0,NNE,5.8,-,0.02,Snow,Light Snow,30,2013-01-24 08:54:00
4:45 AM,21.2,15.8,80,30.07,1.2,NNE,8.1,-,0.01,Snow,Light Snow,30,2013-01-24 09:45:00
4:54 AM,21.0,15.1,78,30.09,1.5,NNE,10.4,-,0.01,Snow,Light Snow,20,2013-01-24 09:54:00
5:54 AM,21.0,15.1,78,30.11,1.0,North,11.5,17.3,0.00,Snow,Light Snow,10,2013-01-24 10:54:00
6:45 AM,21.2,15.8,80,30.14,3.0,North,9.2,-,0.00,Snow,Light Snow,360,2013-01-24 11:45:00
6:50 AM,21.2,14.0,74,30.14,2.5,North,12.7,18.4,0.00,Snow,Light Snow,360,2013-01-24 11:50:00
6:54 AM,21.0,14.0,74,30.15,2.5,North,11.5,19.6,0.00,Snow,Light Snow,10,2013-01-24 11:54:00
7:12 AM,19.4,14.0,80,30.16,2.0,North,11.5,19.6,0.00,Snow,Light Snow,350,2013-01-24 12:12:00
7:32 AM,19.4,12.2,74,30.17,3.0,North,11.5,18.4,0.00,Snow,Light Snow,360,2013-01-24 12:32:00
7:54 AM,19.9,12.0,71,30.19,8.0,North,11.5,-,0.00,,Overcast,360,2013-01-24 12:54:00
8:54 AM,19.9,9.0,62,30.23,10.0,North,11.5,18.4,N/A,,Clear,360,2013-01-24 13:54:00
9:54 AM,21.0,9.0,60,30.27,10.0,NNW,15.0,-,N/A,,Clear,340,2013-01-24 14:54:00
10:54 AM,23.0,9.0,55,30.31,10.0,NNW,13.8,21.9,N/A,,Clear,330,2013-01-24 15:54:00
11:54 AM,25.0,8.1,49,30.31,10.0,NW,13.8,-,N/A,,Clear,320,2013-01-24 16:54:00
12:54 PM,26.1,9.0,49,30.33,10.0,NW,21.9,27.6,N/A,,Scattered Clouds,320,2013-01-24 17:54:00
1:54 PM,26.1,9.0,49,30.34,10.0,NW,18.4,25.3,N/A,,Overcast,310,2013-01-24 18:54:00
2:54 PM,28.0,10.0,47,30.36,10.0,NW,20.7,27.6,N/A,,Overcast,310,2013-01-24 19:54:00
3:54 PM,28.0,6.1,39,30.39,10.0,NNW,18.4,23.0,N/A,,Mostly Cloudy,330,2013-01-24 20:54:00
4:54 PM,26.1,3.0,37,30.42,10.0,NNW,15.0,20.7,N/A,,Clear,330,2013-01-24 21:54:00
5:54 PM,23.0,1.9,40,30.45,10.0,NW,9.2,-,N/A,,Clear,320,2013-01-24 22:54:00
6:54 PM,21.9,1.0,40,30.48,10.0,West,3.5,-,N/A,,Clear,280,2013-01-24 23:54:00
7:54 PM,17.1,1.9,52,30.49,10.0,WNW,3.5,-,N/A,,Clear,300,2013-01-25 00:54:00
8:54 PM,14.0,5.0,67,30.50,10.0,Calm,Calm,-,N/A,,Clear,0,2013-01-25 01:54:00
9:54 PM,14.0,3.9,64,30.51,10.0,Calm,Calm,-,N/A,,Clear,0,2013-01-25 02:54:00
10:54 PM,12.0,3.9,70,30.51,10.0,Calm,Calm,-,N/A,,Clear,0,2013-01-25 03:54:00
11:54 PM,10.9,3.9,73,30.52,10.0,Calm,Calm,-,N/A,,Clear,0,2013-01-25 04:54:00